Regional Weather Roundup
Issued by NWS

Home | Current Version | Previous Version | Text Only | Print | Product List | Glossary Off
Versions: 1 2 3 4 5 6 7 8 9 10 11 12 13 14 15 16 17 18 19 20 21 22 23 24 25 26 27 28 29 30 31 32 33 34 35 36 37 38 39 40 41 42 43 44 45 46 47 48 49 50

000
ASUS43 KOAX 210110
RWRNE

WEATHER ROUNDUP FOR NEBRASKA
NATIONAL WEATHER SERVICE OMAHA NE
800 PM CDT FRI APR 20 2018

NOTES: SATELLITE DATA IS BEING USED TO AUGMENT CLOUD COVER ABOVE
       12000 FEET.
       "FAIR" INDICATES FEW OR NO CLOUDS BELOW 12,000 FEET WITH NO
       SIGNIFICANT WEATHER AND/OR OBSTRUCTIONS TO VISIBILITY.


NEZ001>004-019>022-054>056-210200-
NEBRASKA PANHANDLE

CITY           SKY/WX    TMP DP  RH WIND       PRES   REMARKS
SCOTTSBLUFF    LGT RAIN  37  37 100 E17       30.12F FOG     WCI  27
ALLIANCE       CLOUDY    37  36  96 SE17      30.15R WCI  27
CHADRON        CLOUDY    42  36  79 SE10      30.19R
GORDON         CLOUDY    40  37  89 SE12      30.21R WCI  33
KIMBALL        DRIZZLE   36  35  98 SE14      30.10R WCI  27
SIDNEY         CLOUDY    35  33  92 SE17G25   30.12R FOG     WCI  25
$$

NEZ057>060-069>072-079>082-210200-
SOUTHWEST NEBRASKA

CITY           SKY/WX    TMP DP  RH WIND       PRES   REMARKS
NORTH PLATTE   CLOUDY    42  39  89 E14       30.21F
IMPERIAL       CLOUDY    41  40  96 E14       30.14F
LEXINGTON      DRIZZLE   43  39  86 NE10      30.24F
MCCOOK         CLOUDY    41  39  93 NE18      30.14F
OGALLALA       DRIZZLE   40  38  92 E18       30.17S WCI  31
$$

NEZ005>010-023>029-035>040-094-210200-
NORTH CENTRAL NEBRASKA

CITY           SKY/WX    TMP DP  RH WIND       PRES   REMARKS
VALENTINE      LGT RAIN  43  39  86 SE6       30.30R FOG
AINSWORTH      CLOUDY    42  39  86 NE5       30.28F
BROKEN BOW     LGT RAIN  44  39  82 SE9       30.28R
O`NEILL        CLOUDY    51  35  55 E5        30.31R
ORD            LGT RAIN  50  36  58 SE6       30.30R
THEDFORD       LGT RAIN  42  39  88 SE6       30.26S
$$

NEZ041-046>049-061>064-073>077-083>087-210200-
SOUTH CENTRAL NEBRASKA

CITY           SKY/WX    TMP DP  RH WIND       PRES   REMARKS
GRAND ISLAND   CLOUDY    50  36  58 NE5       30.27R
AURORA         CLOUDY    51  32  47 E8        30.26F
HASTINGS       CLOUDY    51  33  50 E3        30.26S
HEBRON         CLOUDY    57  29  33 E9        30.25S
HOLDREGE       LGT RAIN  46  39  76 E12       30.23R
KEARNEY        CLOUDY    48  35  60 E8        30.26S
YORK             N/A     54  28  37 CALM      30.28S
$$

NEZ011>018-030>034-042>045-210200-
NORTHEAST NEBRASKA

CITY           SKY/WX    TMP DP  RH WIND       PRES   REMARKS
NORFOLK        CLOUDY    52  30  43 E7        30.28R
ALBION         CLOUDY    51  34  51 E6        30.30R
BLAIR          CLOUDY    56  29  35 E6        30.31R
COLUMBUS       CLOUDY    53  30  41 CALM      30.31R
FREMONT        CLOUDY    58  29  32 E5        30.31R
TEKAMAH        CLOUDY    54  31  41 E9        30.31R
WAYNE          CLOUDY    52  31  44 E7        30.31S
$$

NEZ050>053-065>068-078-088>093-210200-
SOUTHEAST NEBRASKA

CITY           SKY/WX    TMP DP  RH WIND       PRES   REMARKS
LINCOLN        CLOUDY    58  25  28 E6        30.29R
OMAHA EPPLEY   CLOUDY    59  27  29 E8        30.31R
BEATRICE       CLOUDY    57  30  34 E3        30.27S
FALLS CITY     CLOUDY    55  27  34 E8        30.26F
NEBRASKA CITY  CLOUDY    57  30  35 SE8       30.29S
PLATTSMOUTH    CLOUDY    56  28  34 E7        30.30R
$$

NEZ044-045-051>053-067-210200-
OMAHA AREA

CITY           SKY/WX    TMP DP  RH WIND       PRES   REMARKS
OMAHA EPPLEY   CLOUDY    59  27  29 E8        30.31R
BLAIR          CLOUDY    56  29  35 E6        30.31R
FREMONT        CLOUDY    58  29  32 E5        30.31R
MILLARD        CLOUDY    59  30  33 E5        30.31R
OFFUTT AFB     CLOUDY    56  29  35 E8        30.30R
PLATTSMOUTH    CLOUDY    56  28  34 E7        30.30R
WAHOO          CLOUDY    57  25  29 E8        30.29R
$$



USA.gov is the U.S. government's official web portal to all federal, state and local government web resources and services.